Torna al catalogo

COSMOS 2251 DEB

AttivoLEO
NORAD 35669·DEBRIS·🇷🇺 Russia

Lanciato Jun 16, 1993 da Plesetsk Cosmodrome

Loading…

Prossimi Passaggi (prossime 24 ore)

TLE

In scadenzaSource: Space-Track

Epoca: Sep 11, 2026, 04:27 UTC

1 35669U 93036APL 26254.18575250  .00000727  00000-0  64116-3 0  9999
2 35669  73.8577  74.7048 0385318 139.4620 223.5882 13.57643479644868

Traccia COSMOS 2251 DEB in tempo reale con AllMySat

Download on the App Store